Regional Weather Roundup
Issued by NWS

Home | Current Version | Previous Version | Graphics & Text | Print | Product List | Glossary On
Versions: 1 2 3 4 5 6 7 8 9 10 11 12 13 14 15 16 17 18 19 20 21 22 23 24 25 26 27 28 29 30 31 32 33 34 35 36 37 38 39 40 41 42 43 44 45 46 47 48 49 50
000
ASUS45 KTFX 011004
RWRMT
MONTANA HOURLY WEATHER ROUNDUP
NATIONAL WEATHER SERVICE GREAT FALLS MT
304 AM MST SUN MAR 1 2015

NOTE: "FAIR" INDICATES FEW OR NO CLOUDS BELOW 12000 FEET WITH NO
SIGNIFICANT WEATHER AND/OR OBSTRUCTIONS TO VISIBILITY.

* THESE STATIONS ARE NOT UNDER NWS QUALITY CONTROL. THEY DO NOT
   REPORT WEATHER SUCH AS PRECIPITATION OR FOG.

MTZ001>007-043-011100-
WEST OF THE DIVIDE
CITY           SKY/WX    TMP DP  RH WIND       PRES   REMARKS
KALISPELL      CLEAR     12   7  80 CALM      30.26S
MISSOULA       CLEAR     18   9  68 N3        30.29R
BUTTE          CLEAR      1  -4  79 SE6       30.20S WCI -11
MULLAN PASS    CLEAR     16  -4  40 SE9       30.09S WCI   5
* ANACONDA     CLEAR      3  -2  79 S6         N/A   WCI  -8
* ESSEX        N/A       10   3  73 S5G12      N/A   WCI   1
* LINCOLN      N/A       -1  -6  79 N/A        N/A
* LOOKOUT PASS N/A       12   1  61 SE1        N/A
* POLSON       N/A       16   2  54 SE1        N/A
* RONAN APT    CLEAR     18  10  71 N/A        N/A
* SEELEY LAKE  N/A       -1  -6  79 NE1        N/A
* THOMP F APT  CLEAR     10  -1  61 N9G25      N/A   WCI  -3
$$

MTZ008-052>055-011100-
SOUTHWEST MONTANA
CITY           SKY/WX    TMP DP  RH WIND       PRES   REMARKS
BOZEMAN        CLEAR      5   1  83 S7        30.25S WCI  -7
DILLON         PTCLDY     5   0  80 S7        30.19S WCI  -7
* W YELLOWSTON PTCLDY    -6 -12  75 S2         N/A
* THREE FORKS  CLEAR      7   0  73 N/A        N/A
* BOULDER HILL N/A        5  -6  60 S6         N/A   WCI  -6
* MONIDA PASS  N/A        7   2  80 W13G18     N/A   WCI  -9
* RAYNOLDS PAS N/A        0 -40  12 N8         N/A   WCI -14
* WHITEHALL    N/A        6  -4  63 W3         N/A
* WISE RIVER   N/A        4  -4  69 SE1        N/A
$$

MTZ009>010-012-014-046-048-049-054-011100-
EAST SLOPES AND CENTRAL MONTANA
CITY           SKY/WX    TMP DP  RH WIND       PRES   REMARKS
CUT BANK       MOCLDY    12   9  88 CALM      30.21S
GREAT FALLS    CLOUDY    16   9  74 SW9       30.25S WCI   5
HELENA         CLEAR     10   3  73 W3        30.28R
* DEARBORN     N/A        7   3  83 SE2        N/A
* EAST GLACIER N/A        6  -1  73 N6         N/A   WCI  -5
* MONARCH      N/A       12   5  73 NW9        N/A
* PENDROY      N/A       15  10  80 W5         N/A   WCI   7
* ROGERS PASS  N/A        8   3  80 NW2        N/A
* SWEET GRASS  N/A       18  17  96 NW6        N/A   WCI  10
$$

MTZ011-013-016-021-035-040-045-047-050-051-011100-
NORTH CENTRAL MONTANA
CITY           SKY/WX    TMP DP  RH WIND       PRES   REMARKS
HAVRE          CLEAR     12   9  88 NW8       30.26R
LEWISTOWN      LGT SNOW  18  10  71 NW16      30.18R WCI   3
* N BAR RANCH  HAZE      16   9  74 NW15G22   30.14S VSB 3    WCI   1
* CHESTER      N/A       15   9  77 W3         N/A
* DENTON       N/A       14   7  73 W12        N/A
* GEYSER       N/A       15   9  77 W16G21     N/A   WCI  -1
* JUDITH GAP   N/A       11   4  73 NW8        N/A   WCI  -1
* LOMA         N/A       18  11  74 W9         N/A   WCI   7
$$

MTZ017>020-022>027-061-062-011100-
NORTHEAST MONTANA
CITY           SKY/WX    TMP DP  RH WIND       PRES   REMARKS
GLASGOW        PTCLDY    16  10  77 NW8       30.18S WCI   5
GLENDIVE       CLOUDY    16  12  84 W10       30.17S WCI   4
JORDAN         PTCLDY    18  12  77 W10       30.18S WCI   6
SIDNEY         PTCLDY    18  12  77 W13       30.17F WCI   5
WOLF POINT     FOG       18  12  77 W7        30.19R WCI   9
* BEAVER HILL  N/A       13  10  88 SW15       N/A   WCI  -3
* CIRCLE       N/A       18  15  88 SW5        N/A   WCI  11
* LINDSAY DVD  N/A       16  13  88 W15        N/A   WCI   1
* NAVAJO       N/A       12   9  88 NW11       N/A   WCI  -2
* SACO         N/A       18  15  88 W7         N/A   WCI   9
$$

MTZ028>042-056>058-011100-
SOUTHCENTRAL AND SOUTHEAST MONTANA
CITY           SKY/WX    TMP DP  RH WIND       PRES   REMARKS
BAKER          CLOUDY    14   9  80 W12       30.15S
BILLINGS       FAIR      12   5  73 SW12      30.21R WCI  -2
LIVINGSTON     PTCLDY     7   0  73 NW10      30.22R WCI  -7
MILES CITY     CLOUDY    16   9  74 W10       30.20F WCI   4
* LAUREL APT   CLEAR     10   1  67 SW6        N/A
* ROUNDUP APT  CLEAR      9  -2  61 N/A        N/A
* ALZADA       N/A        8   4  84 SW6        N/A   WCI  -2
* HYSHAM       N/A       15   7  70 W2G7       N/A
* LAME DEER    N/A        9   5  84 W9         N/A   WCI  -4
* REED POINT   N/A        6   4  91 N/A        N/A
* ROSCOE HILL  N/A       10  -3  55 S5         N/A   WCI   1
$$

REGIONAL REPORTS...DAKOTAS
CITY           SKY/WX    TMP DP  RH WIND       PRES   REMARKS
WILLISTON      CLOUDY    12   9  88 SW6       30.14S WCI   2
DICKINSON      PTCLDY    12   5  73 W16       30.10S WCI  -5
CROSBY         CLOUDY    14  10  84 NW14      30.12S WCI  -1
WATFORD CITY   LGT SNOW  16  10  77 W10       30.11F WCI   4
BISMARCK       CLEAR      5   0  80 SW6       30.18F WCI  -6
GRAND FORKS    CLEAR      1  -4  79 W9        30.15F WCI -14
FARGO          CLEAR     -2  -8  75 SW9       30.21S WCI -18
BUFFALO SD     PTCLDY     9   3  76 W7        30.07F WCI  -2
RAPID CITY     CLOUDY    14  10  84 W6        30.19S WCI   5
$$

REGIONAL REPORTS...WYOMING/IDAHO/WASHINGTON
CITY           SKY/WX    TMP DP  RH WIND       PRES   REMARKS
GILLETTE       CLEAR      7   3  83 W7        30.13S WCI  -5
SHERIDAN       PTCLDY     1  -2  87 N6        30.16R WCI -11
CODY           MOCLDY    12   9  88 SW5       30.13S WCI   4
YELLOWSTONE LA PTCLDY   -11 -17  74 CALM      30.06R
SALMON         PTCLDY    19  10  68 N9        30.21R WCI   8
MULLAN PASS    CLEAR     16  -4  40 SE9       30.09S WCI   5
SAND POINT     CLEAR     19  14  81 CALM      30.27R
SPOKANE        FAIR      25   9  50 CALM      30.23R
$$

REGIONAL REPORTS...SASKATCHEWAN
CITY           SKY/WX    TMP DP  RH WIND       PRES   REMARKS
SWIFT CURRENT  LGT SNOW  14  12  92 NW9       30.13S WCI   2

$$




USA.gov is the U.S. government's official web portal to all federal, state and local government web resources and services.